Weather History for Marianna, FL

Change the Weather History Date:

Tuesday, January 8, 2013

  Actual Average Record
Temperature  
Mean Temperature 57 °F 50 °F  
Max Temperature 69 °F 61 °F 78 °F (2012)
Min Temperature 45 °F 38 °F 20 °F (2014)
Degree Days  
Heating Degree Days 8    
Month to date heating degree days  
Since 1 July heating degree days  
Cooling Degree Days 0    
Month to date cooling degree days  
Year to date cooling degree days  
Growing Degree Days 7 (Base 50)    
Moisture  
Dew Point 48 °F    
Average Humidity 74    
Maximum Humidity 90    
Minimum Humidity 58    
Precipitation  
Precipitation 0.00 in 0.13 in 0.34 in (2007)
Month to date precipitation 1.35  
Year to date precipitation 1.35  
Sea Level Pressure  
Sea Level Pressure 30.24 in    
Wind  
Wind Speed 6 mph (ENE)    
Max Wind Speed 12 mph    
Max Gust Speed -    
Visibility 10 miles    
Events Rain    
T = Trace of Precipitation, MM = Missing Value Source: NWS Daily Summary

Daily Weather History Graph

Daily Weather History Graph

Search for Another Location

Airport:

Trip Planner

Search our weather history database for the weather conditions in past years. The results will help you decide how hot, cold, wet, or windy it might be!

Date:

Astronomy

Jan. 08, 2013 Rise Set
Actual Time 6:39 AM CST 4:55 PM CST
Civil Twilight 6:13 AM CST 5:22 PM CST
Nautical Twilight 5:43 AM CST 5:52 PM CST
Astronomical Twilight 5:14 AM CST 6:21 PM CST
Moon 3:12 AM CST (1/8) 1:56 PM CST (1/8)
Length of Visible Light 11h 08m
Length of Day
10h 16m
Waning Crescent, 13% of the Moon is Illuminated
Jan 8
Waning Crescent
Jan 11
New
Jan 18
First Quarter
Jan 26
Full
Feb 3
Last Quarter

Hourly Weather History & Observations

Time (CST) Temp. Windchill Dew Point Humidity Pressure Visibility Wind Dir Wind Speed Gust Speed Precip Events Conditions
12:53 AM 50.0 °F - 41.0 °F 71% 30.23 in 10.0 mi ENE 6.9 mph - N/A   Overcast
1:53 AM 50.0 °F - 41.0 °F 71% 30.23 in 10.0 mi ENE 8.1 mph - N/A   Overcast
2:53 AM 48.0 °F - 39.9 °F 74% 30.22 in 10.0 mi ENE 5.8 mph - N/A   Scattered Clouds
3:53 AM 46.9 °F - 39.9 °F 77% 30.22 in 10.0 mi ENE 4.6 mph - N/A   Scattered Clouds
4:53 AM 45.0 °F 43.5 °F 39.9 °F 82% 30.24 in 10.0 mi North 3.5 mph - N/A   Clear
5:12 AM 46.4 °F - 41.0 °F 81% 30.24 in 10.0 mi Calm Calm - N/A   Mostly Cloudy
5:31 AM 46.4 °F 44.3 °F 41.0 °F 81% 30.24 in 10.0 mi NE 4.6 mph - N/A   Overcast
6:21 AM 48.2 °F - 41.0 °F 76% 30.25 in 10.0 mi ENE 6.9 mph - N/A   Overcast
6:32 AM 48.2 °F - 41.0 °F 76% 30.25 in 10.0 mi NE 3.5 mph - N/A   Overcast
6:53 AM 48.0 °F - 41.0 °F 77% 30.27 in 10.0 mi NNE 5.8 mph - N/A   Overcast
7:06 AM 48.2 °F - 42.8 °F 82% 30.27 in 9.0 mi NE 5.8 mph - 0.00 in Rain Light Rain
8:01 AM 48.2 °F - 42.8 °F 82% 30.29 in 10.0 mi NE 8.1 mph - 0.00 in Rain Light Rain
8:53 AM 51.1 °F - 42.1 °F 71% 30.30 in 10.0 mi ENE 9.2 mph - 0.00 in   Scattered Clouds
9:53 AM 57.9 °F - 46.0 °F 65% 30.30 in 10.0 mi East 4.6 mph - N/A   Mostly Cloudy
10:53 AM 62.1 °F - 48.0 °F 60% 30.26 in 10.0 mi ENE 11.5 mph - N/A   Mostly Cloudy
11:53 AM 64.9 °F - 51.1 °F 61% 30.23 in 10.0 mi East 8.1 mph - N/A   Mostly Cloudy
12:25 PM 66.2 °F - 51.8 °F 60% 30.23 in 10.0 mi East 4.6 mph - N/A   Mostly Cloudy
12:53 PM 66.0 °F - 52.0 °F 60% 30.22 in 10.0 mi Calm Calm - N/A   Mostly Cloudy
1:43 PM 66.2 °F - 53.6 °F 64% 30.21 in 10.0 mi NE 4.6 mph - N/A   Overcast
1:53 PM 69.1 °F - 54.0 °F 58% 30.21 in 10.0 mi NE 4.6 mph - N/A   Overcast
2:53 PM 69.1 °F - 55.0 °F 61% 30.20 in 10.0 mi ENE 6.9 mph - N/A   Mostly Cloudy
3:53 PM 68.0 °F - 55.9 °F 65% 30.19 in 10.0 mi NE 5.8 mph - N/A   Clear
4:53 PM 64.9 °F - 55.9 °F 73% 30.21 in 10.0 mi Calm Calm - N/A   Clear
5:53 PM 60.1 °F - 55.0 °F 83% 30.22 in 10.0 mi Calm Calm - N/A   Clear
6:53 PM 57.9 °F - 55.0 °F 90% 30.22 in 10.0 mi ENE 3.5 mph - N/A   Clear
7:53 PM 61.0 °F - 55.9 °F 83% 30.23 in 10.0 mi ENE 4.6 mph - N/A   Clear
8:53 PM 57.9 °F - 55.0 °F 90% 30.22 in 10.0 mi NE 6.9 mph - N/A   Clear
9:53 PM 59.0 °F - 55.0 °F 87% 30.23 in 10.0 mi NE 6.9 mph - N/A   Mostly Cloudy
11:05 PM 59.0 °F - 55.4 °F 88% 30.24 in 10.0 mi NE 5.8 mph - N/A   Mostly Cloudy
11:53 PM 60.1 °F - 55.9 °F 86% 30.23 in 10.0 mi ENE 6.9 mph - N/A   Overcast